Kahului, HI

12:46 AM HST on March 24, 2017 (GMT -1000)
Kahului

Weather History for PHOG - March, 2015

Change the Weather History Date:

Monday, March 16, 2015

  Actual Average Record
Temperature  
Mean Temperature 70 °F 73 °F  
Max Temperature 81 °F 81 °F 87 °F (1966)
Min Temperature 59 °F 64 °F 51 °F (2005)
Degree Days  
Heating Degree Days 0 0  
Month to date heating degree days 0 0  
Since 1 July heating degree days 0 0  
Cooling Degree Days 5 8  
Month to date cooling degree days 92 120  
Year to date cooling degree days 496 529  
Growing Degree Days 20 (Base 50)    
Moisture  
Dew Point 58 °F    
Average Humidity 68    
Maximum Humidity 90    
Minimum Humidity 45    
Precipitation  
Precipitation 0.00 in 0.08 in 0.53 in (1955)
Month to date precipitation 6.16 1.25  
Year to date precipitation 10.47 6.01  
Snow  
Snow 0.00 in - - ()
Month to date snowfall 0.0  
Since 1 July snowfall 0.0  
Snow Depth 0.00 in    
Sea Level Pressure  
Sea Level Pressure 30.05 in    
Wind  
Wind Speed 6 mph (East)    
Max Wind Speed 13 mph    
Max Gust Speed 18 mph    
Visibility 10 miles    
Events      
T = Trace of Precipitation, MM = Missing Value Source: NWS Daily Summary

Daily Weather History Graph

Daily Weather History Graph

Search for Another Location

Airport or City:

Trip Planner

Search our weather history database for the weather conditions in past years. The results will help you decide how hot, cold, wet, or windy it might be!

Date:

Astronomy

Mar. 16, 2015 Rise Set
Actual Time 6:33 AM HST 6:35 PM HST
Civil Twilight 6:11 AM HST 6:57 PM HST
Nautical Twilight 5:45 AM HST 7:23 PM HST
Astronomical Twilight 5:19 AM HST 7:49 PM HST
Moon 3:27 AM HST (3/16) 3:08 PM HST (3/16)
Length of Visible Light 12h 46m
Length of Day
12h 02m
Waning Crescent, 17% of the Moon is Illuminated
Mar 16
Waning Crescent
Mar 19
New
Mar 26
First Quarter
Apr 4
Full
Apr 11
Last Quarter

Hourly Weather History & Observations

Time (HST) Temp. Heat Index Dew Point Humidity Pressure Visibility Wind Dir Wind Speed Gust Speed Precip Events Conditions
12:54 AM 61.0 °F - 55.0 °F 81% 30.07 in 10.0 mi SSE 6.9 mph - N/A   Partly Cloudy
1:54 AM 61.0 °F - 55.0 °F 81% 30.05 in 10.0 mi SSE 5.8 mph - N/A   Partly Cloudy
2:54 AM 61.0 °F - 55.0 °F 81% 30.04 in 10.0 mi SSE 3.5 mph - N/A   Overcast
3:54 AM 62.1 °F - 55.0 °F 78% 30.03 in 10.0 mi SE 5.8 mph - N/A   Overcast
4:54 AM 60.1 °F - 54.0 °F 80% 30.04 in 10.0 mi SSE 6.9 mph - N/A   Clear
5:54 AM 59.0 °F - 55.0 °F 87% 30.05 in 10.0 mi South 4.6 mph - N/A   Mostly Cloudy
6:54 AM 62.6 °F - 55.4 °F 77% 30.04 in 10.0 mi SSE 6.9 mph - N/A   Mostly Cloudy
7:54 AM 68.0 °F - 57.9 °F 70% 30.08 in 10.0 mi Calm Calm - N/A   Scattered Clouds
8:54 AM 75.9 °F - 57.0 °F 52% 30.09 in 10.0 mi Calm Calm - N/A   Scattered Clouds
9:54 AM 77.0 °F - 55.9 °F 48% 30.09 in 10.0 mi Variable 3.5 mph - N/A   Scattered Clouds
10:54 AM 80.1 °F 80.4 °F 57.0 °F 45% 30.09 in 10.0 mi NNW 6.9 mph - N/A   Scattered Clouds
11:54 AM 78.1 °F - 60.1 °F 54% 30.08 in 10.0 mi NNE 9.2 mph - N/A   Scattered Clouds
12:54 PM 79.0 °F - 60.1 °F 52% 30.06 in 10.0 mi NNE 11.5 mph - N/A   Scattered Clouds
1:54 PM 80.1 °F 80.9 °F 60.1 °F 50% 30.03 in 10.0 mi NE 10.4 mph - N/A   Scattered Clouds
2:54 PM 80.1 °F 80.9 °F 60.1 °F 50% 30.02 in 10.0 mi NNE 12.7 mph - N/A   Partly Cloudy
3:54 PM 79.0 °F - 60.1 °F 52% 30.02 in 10.0 mi NNE 11.5 mph - N/A   Scattered Clouds
4:54 PM 75.9 °F - 59.0 °F 56% 30.02 in 10.0 mi North 6.9 mph - N/A   Scattered Clouds
5:54 PM 73.9 °F - 57.9 °F 57% 30.03 in 10.0 mi North 8.1 mph - N/A   Partly Cloudy
6:54 PM 73.9 °F - 57.9 °F 57% 30.03 in 10.0 mi NNE 5.8 mph - N/A   Scattered Clouds
7:54 PM 71.1 °F - 59.0 °F 66% 30.04 in 10.0 mi NE 3.5 mph - N/A   Clear
8:54 PM 68.0 °F - 59.0 °F 73% 30.06 in 10.0 mi North 4.6 mph - N/A   Clear
9:54 PM 64.0 °F - 59.0 °F 84% 30.07 in 10.0 mi SSE 4.6 mph - N/A   Clear
10:54 PM 63.0 °F - 59.0 °F 87% 30.07 in 10.0 mi South 3.5 mph - N/A   Clear
11:54 PM 62.1 °F - 57.0 °F 84% 30.07 in 10.0 mi SSE 6.9 mph - N/A   Clear